STARLINK-5234 (54197 NORAD) Tracking and Keplerian Element Data

This shows tracking and keplerian element data for the satellite.

Feedback or suggestion? Click here.




ElementValue
Catalog54197
NameSTARLINK-5234
Epoch Orbit130
Epoch Day324.91667824
Epoch Year2022
RAAN25.7382
Inclination53.219
Eccentricity0.0002867
Argument of Perigee10.806
Mean Anonmoly293.034
Mean Motion15.73169064
Decay Rate0.00036787
L11 54197U 22141AS 22324.91667824 .00036787 00000+0 26570-3 0 9995
L22 54197 53.2190 25.7382 0002867 10.8060 293.0340 15.73169064 1300



Live tracking and technical data element details for STARLINK-5234 (NORAD 54197). STARLINK-5234 can be tracked NOW for your location showing map with azimuth and elevation plus other details from your city location.







IsCatalogInMostPopularTable: catalog: 54197, numindb: 9
Update: records affected: 1



GetName: 54197 STARLINK-5234

Hit Count: updated at: Sun, 04 Dec 2022 21:09:30 GMT